Погода в Баско

Филиппины     20°27′03″N   121°58′04″E
темп.,
°C
ветер,
м/с
пор.,
м/с
влажн.,
%
обл.,
%
осадки,
мм/ч
давл.,
гПа
погр.,
м
23 апреля, пт
пт2323:00+26ссз911825 0.0 1006678
02:00+26ссз79805 0.0 1005672
05:00+25ссз78828 0.4 1005705
08:00+26ссз77785 0.7 1007762
11:00+26сз67788 0.0 1007715
14:00+26ссз66774 0.8 1006651
17:00+26с55800 0.3 1006447
20:00+26ссв558114 0.8 1008609
24 апреля, сб
сб2423:00+25св558323 0.0 1009618
02:00+25св668213 0.1 1008667
05:00+25св668224 0.0 1009696
08:00+25св777996 0.2 1011759
11:00+25св777443 0.0 1011948
14:00+25св777777 0.0 1010917
17:00+25св787296 0.1 10101075
20:00+25св8872100 0.1 10121074
25 апреля, вс
вс2523:00+25св8869100 0.0 10121149
02:00+24св676982 0.1 10101146
05:00+24св6671100 0.0 10111093
08:00+25св5668100 0.1 10131099
11:00+25св76720 0.1 1013845
14:00+25св66724 0.1 10111009
17:00+25всв887545 0.1 1012952
20:00+25св997389 0.2 10131075
26 апреля, пн
пн2623:00+24св997158 0.0 10141164
02:00+24св99665 0.1 10121254
05:00+24всв997340 0.1 10131147
08:00+24всв99699 0.3 10151180
11:00+24всв88706 0.1 10151131
14:00+24всв986918 0.1 10131149
17:00+24всв776517 0.0 10131161
20:00+25всв886534 0.0 10151255
27 апреля, вт
вт2723:00+24всв886530 0.0 10161245
02:00+24в7768100 0.0 10141275
05:00+24всв887348 0.1 10141068
08:00+24всв776814 0.3 10161152
11:00+24в66660 0.0 10161043
14:00+25всв66702 0.0 10141070
17:00+25в77726 0.0 10141008
20:00+25в886915 0.1 10151158